Eau Claire, WI

4:38 PM CST on November 11, 2019 (GMT -0600)
Chippewa Valley Regional

Weather History for KEAU - October, 2019

Change the Weather History Date:

Thursday, October 17, 2019

  Actual Average Record
Temperature  
Mean Temperature 46 °F 47 °F  
Max Temperature 55 °F 58 °F 86 °F (1910)
Min Temperature 37 °F 36 °F 16 °F (1952)
Degree Days  
Heating Degree Days 18 18  
Month to date heating degree days 248 258  
Since 1 July heating degree days 356 491  
Cooling Degree Days 0 0  
Month to date cooling degree days 0 4  
Year to date cooling degree days 463 579  
Moisture  
Dew Point 37 °F    
Average Humidity 71    
Maximum Humidity 92    
Minimum Humidity 47    
Precipitation  
Precipitation 0.00 in 0.08 in 1.79 in (1898)
Month to date precipitation 3.10 1.45  
Year to date precipitation 37.39 27.25  
Snow  
Snow 0.00 in 0.00 in T in (2002)
Month to date snowfall T 0.1  
Since 1 July snowfall T 0.1  
Since 1 September snowfall T 0.1  
Snow Depth 0.00 in    
Sea Level Pressure  
Sea Level Pressure 30.02 in    
Wind  
Wind Speed 3 mph ()    
Max Wind Speed 12 mph    
Max Gust Speed 17 mph    
Visibility 9.6 miles    
Events      
T = Trace of Precipitation, MM = Missing Value Source: Averaged Metar Reports

Daily Weather History Graph

Daily Weather History Graph

Search for Another Location

Airport or City:

Astronomy

Oct. 17, 2019 Rise Set
Actual Time 7:23 AM CDT 6:18 PM CDT
Civil Twilight 6:54 AM CDT 6:47 PM CDT
Nautical Twilight 6:20 AM CDT 7:21 PM CDT
Astronomical Twilight 5:46 AM CDT 7:55 PM CDT
Moon 8:41 PM CDT (10/17) 11:03 AM CDT (10/17)
Length of Visible Light 11h 53m
Length of Day
10h 54m
Waning Gibbous, 86% of the Moon is Illuminated
Oct 17
Waning Gibbous
Oct 21
Last Quarter
Oct 27
New
Nov 4
First Quarter
Nov 12
Full

Hourly Weather History & Observations

Time (CDT) Temp. Windchill Dew Point Humidity Pressure Visibility Wind Dir Wind Speed Gust Speed Precip Events Conditions
12:56 AM 44.1 °F 41.5 °F 37.0 °F 76% 30.06 in 10.0 mi West 4.6 mph - N/A   Overcast
1:19 AM 44.1 °F 41.5 °F 37.0 °F 76% 30.05 in 10.0 mi West 4.6 mph - N/A   Overcast
1:51 AM 44.6 °F 43.1 °F 37.4 °F 76% 30.03 in 10.0 mi SW 3.5 mph - N/A   Overcast
1:56 AM 44.1 °F 41.5 °F 37.0 °F 76% 30.05 in 10.0 mi WSW 4.6 mph - N/A   Overcast
2:08 AM 44.1 °F 41.5 °F 37.0 °F 76% 30.03 in 10.0 mi WSW 4.6 mph - N/A   Overcast
2:40 AM 44.1 °F 42.5 °F 37.0 °F 76% 30.03 in 10.0 mi West 3.5 mph - N/A   Overcast
2:56 AM 43.0 °F - 37.0 °F 80% 30.04 in 10.0 mi Calm Calm - N/A   Overcast
3:56 AM 43.0 °F 40.3 °F 37.0 °F 80% 30.04 in 10.0 mi West 4.6 mph - N/A   Overcast
4:56 AM 43.0 °F - 37.0 °F 80% 30.03 in 10.0 mi Calm Calm - N/A   Overcast
5:56 AM 41.0 °F - 37.0 °F 86% 30.04 in 10.0 mi Calm Calm - N/A   Mostly Cloudy
6:56 AM 37.9 °F 35.5 °F 34.0 °F 86% 30.05 in 8.0 mi West 3.5 mph - N/A   Clear
7:56 AM 37.9 °F - 35.1 °F 89% 30.06 in 4.0 mi Calm Calm - N/A   Scattered Clouds
8:56 AM 41.0 °F 39.0 °F 37.0 °F 86% 30.06 in 6.0 mi SW 3.5 mph - N/A   Mostly Cloudy
9:56 AM 45.0 °F - 37.9 °F 76% 30.06 in 10.0 mi Calm Calm - N/A   Clear
10:56 AM 48.0 °F - 37.9 °F 68% 30.07 in 10.0 mi Variable 3.5 mph - N/A   Clear
11:56 AM 50.0 °F - 36.0 °F 59% 30.05 in 10.0 mi Calm Calm - N/A   Clear
12:56 PM 52.0 °F - 37.0 °F 57% 30.04 in 10.0 mi Variable 3.5 mph - N/A   Scattered Clouds
1:56 PM 54.0 °F - 37.0 °F 53% 30.01 in 10.0 mi SSE 5.8 mph - N/A   Scattered Clouds
2:56 PM 55.0 °F - 37.0 °F 51% 30.00 in 10.0 mi Variable 5.8 mph - N/A   Partly Cloudy
3:56 PM 55.9 °F - 37.0 °F 49% 29.98 in 10.0 mi SSE 8.1 mph - N/A   Partly Cloudy
4:56 PM 55.9 °F - 36.0 °F 47% 29.97 in 10.0 mi SE 5.8 mph - N/A   Clear
5:56 PM 53.1 °F - 36.0 °F 52% 29.96 in 10.0 mi ESE 5.8 mph - N/A   Clear
6:56 PM 48.0 °F - 36.0 °F 63% 29.97 in 10.0 mi SE 4.6 mph - N/A   Clear
7:56 PM 48.0 °F - 37.0 °F 66% 29.97 in 10.0 mi SE 8.1 mph - N/A   Clear
8:56 PM 44.1 °F - 37.0 °F 76% 29.99 in 10.0 mi Calm Calm - N/A   Clear
9:56 PM 45.0 °F 40.6 °F 37.0 °F 74% 29.98 in 10.0 mi ESE 8.1 mph - N/A   Clear
10:56 PM 44.1 °F 39.0 °F 36.0 °F 73% 29.97 in 10.0 mi SE 9.2 mph - N/A   Clear
11:56 PM 43.0 °F 39.5 °F 36.0 °F 76% 29.98 in 10.0 mi SE 5.8 mph - N/A   Clear